Time,TemperatureF,DewpointF,PressureIn,WindDirection,WindDirectionDegrees,WindSpeedMPH,WindSpeedGustMPH,Humidity,HourlyPrecipIn,Conditions,Clouds,dailyrainin,SoftwareType,DateUTC
2013-07-20 00:00:00,65.7,65.1,30.02,West,270,0.0,0.0,98,0.00,,---,0.01,VWS V14.01,2013-07-20 04:00:00,
2013-07-20 00:01:00,65.7,65.1,30.02,West,270,0.0,0.0,98,0.00,,---,0.00,VWS V14.01,2013-07-20 04:01:00,
2013-07-20 00:06:00,65.7,65.1,30.02,West,270,0.0,0.0,98,0.00,,---,0.00,VWS V14.01,2013-07-20 04:06:00,
2013-07-20 00:11:00,65.7,65.1,30.02,West,270,0.0,0.0,98,0.00,,---,0.00,VWS V14.01,2013-07-20 04:11:00,
2013-07-20 00:16:00,65.6,65.0,30.02,West,270,0.0,0.0,98,0.00,,---,0.00,VWS V14.01,2013-07-20 04:16:00,
2013-07-20 00:21:00,65.6,65.3,30.02,West,270,0.0,0.0,99,0.00,,---,0.00,VWS V14.01,2013-07-20 04:21:00,
2013-07-20 00:26:00,65.5,65.2,30.01,West,270,0.0,0.0,99,0.00,,---,0.00,VWS V14.01,2013-07-20 04:26:00,
2013-07-20 00:31:00,65.6,65.3,30.01,West,270,0.0,0.0,99,0.00,,---,0.00,VWS V14.01,2013-07-20 04:31:00,
2013-07-20 00:36:00,65.6,65.3,30.02,West,270,0.0,0.0,99,0.00,,---,0.00,VWS V14.01,2013-07-20 04:36:00,
2013-07-20 00:41:00,65.6,65.3,30.02,West,270,0.0,0.0,99,0.00,,---,0.00,VWS V14.01,2013-07-20 04:41:00,
2013-07-20 00:46:00,65.5,65.5,30.02,West,270,0.0,0.0,100,0.00,,---,0.00,VWS V14.01,2013-07-20 04:46:00,
2013-07-20 00:51:00,65.5,65.2,30.02,West,270,0.0,0.0,99,0.00,,---,0.00,VWS V14.01,2013-07-20 04:51:00,
2013-07-20 00:56:00,65.4,65.4,30.01,West,270,0.0,0.0,100,0.00,,---,0.00,VWS V14.01,2013-07-20 04:56:00,
2013-07-20 01:01:00,65.3,65.3,30.01,West,270,0.0,0.0,100,0.00,,---,0.00,VWS V14.01,2013-07-20 05:01:00,
2013-07-20 01:06:00,65.3,65.3,30.01,West,270,0.0,0.0,100,0.00,,---,0.00,VWS V14.01,2013-07-20 05:06:00,
2013-07-20 01:11:00,65.2,65.2,30.01,West,270,0.0,0.0,100,0.00,,---,0.00,VWS V14.01,2013-07-20 05:11:00,
2013-07-20 01:16:00,65.2,65.2,30.01,West,270,0.0,0.0,100,0.00,,---,0.00,VWS V14.01,2013-07-20 05:16:00,
2013-07-20 01:21:00,65.1,65.1,30.00,West,270,0.0,0.0,100,0.00,,---,0.00,VWS V14.01,2013-07-20 05:21:00,
2013-07-20 01:26:00,65.0,65.0,30.00,West,270,0.0,0.0,100,0.00,,---,0.00,VWS V14.01,2013-07-20 05:26:00,
2013-07-20 01:31:00,65.2,65.2,30.00,West,270,0.0,1.0,100,0.00,,---,0.00,VWS V14.01,2013-07-20 05:31:00,
2013-07-20 01:36:00,65.1,65.1,29.99,West,270,0.0,0.0,100,0.00,,---,0.00,VWS V14.01,2013-07-20 05:36:00,
2013-07-20 01:41:00,65.2,65.2,29.99,West,270,0.0,1.0,100,0.00,,---,0.00,VWS V14.01,2013-07-20 05:41:00,
2013-07-20 01:46:00,65.1,65.1,29.99,West,270,0.0,0.0,100,0.00,,---,0.00,VWS V14.01,2013-07-20 05:46:00,
2013-07-20 01:51:00,65.0,65.0,29.99,West,270,1.0,1.0,100,0.00,,---,0.00,VWS V14.01,2013-07-20 05:51:00,
2013-07-20 01:56:00,64.7,64.7,29.99,SE,128,2.0,2.0,100,0.00,,---,0.00,VWS V14.01,2013-07-20 05:56:00,
2013-07-20 02:01:00,64.8,64.8,29.99,SE,128,1.0,2.0,100,0.00,,---,0.00,VWS V14.01,2013-07-20 06:01:00,
2013-07-20 02:06:00,64.7,64.7,29.98,SE,128,0.0,1.0,100,0.00,,---,0.00,VWS V14.01,2013-07-20 06:06:00,
2013-07-20 02:11:00,64.7,64.7,29.98,SE,128,0.0,0.0,100,0.00,,---,0.00,VWS V14.01,2013-07-20 06:11:00,
2013-07-20 02:16:00,64.7,64.7,29.98,SE,128,0.0,0.0,100,0.00,,---,0.00,VWS V14.01,2013-07-20 06:16:00,
2013-07-20 02:21:00,64.7,64.7,29.98,SE,128,0.0,1.0,100,0.00,,---,0.00,VWS V14.01,2013-07-20 06:21:00,
2013-07-20 02:26:00,64.8,64.8,29.98,SE,128,0.0,0.0,100,0.00,,---,0.00,VWS V14.01,2013-07-20 06:26:00,
2013-07-20 02:31:00,65.0,65.0,29.98,SE,128,1.0,1.0,100,0.00,,---,0.00,VWS V14.01,2013-07-20 06:31:00,
2013-07-20 02:36:00,65.0,65.0,29.98,SE,128,2.0,2.0,100,0.00,,---,0.00,VWS V14.01,2013-07-20 06:36:00,
2013-07-20 02:41:00,64.8,64.8,29.98,SE,128,0.0,0.0,100,0.00,,---,0.00,VWS V14.01,2013-07-20 06:41:00,
2013-07-20 02:46:00,64.9,64.9,29.98,SE,128,0.0,0.0,100,0.00,,---,0.00,VWS V14.01,2013-07-20 06:46:00,
2013-07-20 02:51:00,65.0,65.0,29.98,South,190,0.0,0.0,100,0.00,,---,0.00,VWS V14.01,2013-07-20 06:51:00,
2013-07-20 02:56:00,65.2,65.2,29.98,South,190,0.0,0.0,100,0.00,,---,0.00,VWS V14.01,2013-07-20 06:56:00,
2013-07-20 03:01:00,65.4,65.4,29.98,South,190,0.0,0.0,100,0.00,,---,0.00,VWS V14.01,2013-07-20 07:01:00,
2013-07-20 03:06:00,65.3,65.3,29.97,South,190,0.0,0.0,100,0.00,,---,0.00,VWS V14.01,2013-07-20 07:06:00,
2013-07-20 03:11:00,65.2,65.2,29.97,South,190,0.0,0.0,100,0.00,,---,0.00,VWS V14.01,2013-07-20 07:11:00,
2013-07-20 03:16:00,65.1,65.1,29.97,South,190,0.0,0.0,100,0.00,,---,0.00,VWS V14.01,2013-07-20 07:16:00,
2013-07-20 03:21:00,65.0,65.0,29.97,South,190,0.0,0.0,100,0.00,,---,0.00,VWS V14.01,2013-07-20 07:21:00,
2013-07-20 03:26:00,64.9,64.9,29.97,SW,216,1.0,1.0,100,0.00,,---,0.00,VWS V14.01,2013-07-20 07:26:00,
2013-07-20 03:30:00,64.9,64.9,29.97,SW,216,0.0,0.0,100,0.00,,---,0.00,VWS V14.01,2013-07-20 07:30:00,
2013-07-20 03:35:00,64.6,64.6,29.97,SW,216,0.0,0.0,100,0.00,,---,0.00,VWS V14.01,2013-07-20 07:35:00,
2013-07-20 03:40:00,64.8,64.8,29.97,SW,216,0.0,0.0,100,0.00,,---,0.00,VWS V14.01,2013-07-20 07:40:00,
2013-07-20 03:45:00,64.6,64.6,29.97,SW,216,0.0,0.0,100,0.00,,---,0.00,VWS V14.01,2013-07-20 07:45:00,
2013-07-20 03:50:00,64.7,64.7,29.97,SW,216,0.0,1.0,100,0.00,,---,0.00,VWS V14.01,2013-07-20 07:50:00,
2013-07-20 03:56:00,64.8,64.8,29.96,SW,216,0.0,0.0,100,0.00,,---,0.00,VWS V14.01,2013-07-20 07:56:00,
2013-07-20 04:01:00,64.8,64.8,29.96,SW,216,0.0,1.0,100,0.00,,---,0.00,VWS V14.01,2013-07-20 08:01:00,
2013-07-20 04:05:00,64.8,64.8,29.97,WSW,239,1.0,1.0,100,0.00,,---,0.00,VWS V14.01,2013-07-20 08:05:00,
2013-07-20 04:10:00,64.8,64.8,29.97,WSW,240,1.0,1.0,100,0.00,,---,0.00,VWS V14.01,2013-07-20 08:10:00,
2013-07-20 04:15:00,64.7,64.7,29.97,WSW,244,2.0,2.0,100,0.00,,---,0.00,VWS V14.01,2013-07-20 08:15:00,
2013-07-20 04:20:00,64.7,64.7,29.97,WSW,245,0.0,1.0,100,0.00,,---,0.00,VWS V14.01,2013-07-20 08:20:00,
2013-07-20 04:26:00,64.6,64.6,29.97,WSW,245,0.0,0.0,100,0.00,,---,0.00,VWS V14.01,2013-07-20 08:26:00,
2013-07-20 04:30:00,64.7,64.7,29.97,WSW,245,0.0,1.0,100,0.00,,---,0.00,VWS V14.01,2013-07-20 08:30:00,
2013-07-20 04:35:00,64.8,64.8,29.97,WSW,245,0.0,1.0,100,0.00,,---,0.00,VWS V14.01,2013-07-20 08:35:00,
2013-07-20 04:40:00,64.9,64.9,29.97,WSW,245,1.0,1.0,100,0.00,,---,0.00,VWS V14.01,2013-07-20 08:40:00,
2013-07-20 04:45:00,65.0,65.0,29.96,WSW,245,1.0,1.0,100,0.00,,---,0.00,VWS V14.01,2013-07-20 08:45:00,
2013-07-20 04:50:00,65.1,65.1,29.97,WSW,245,0.0,0.0,100,0.00,,---,0.00,VWS V14.01,2013-07-20 08:50:00,
2013-07-20 04:55:00,65.0,65.0,29.96,WSW,245,0.0,0.0,100,0.00,,---,0.00,VWS V14.01,2013-07-20 08:55:00,
2013-07-20 05:00:00,64.9,64.9,29.96,WSW,245,0.0,0.0,100,0.00,,---,0.00,VWS V14.01,2013-07-20 09:00:00,
2013-07-20 05:05:00,64.9,64.9,29.96,WSW,245,0.0,1.0,100,0.00,,---,0.00,VWS V14.01,2013-07-20 09:05:00,
2013-07-20 05:10:00,64.9,64.9,29.96,WSW,245,0.0,0.0,100,0.00,,---,0.00,VWS V14.01,2013-07-20 09:10:00,
2013-07-20 05:15:00,64.8,64.8,29.97,WSW,245,0.0,1.0,100,0.00,,---,0.00,VWS V14.01,2013-07-20 09:15:00,
2013-07-20 05:20:00,64.7,64.7,29.96,WSW,245,0.0,1.0,100,0.00,,---,0.00,VWS V14.01,2013-07-20 09:20:00,
2013-07-20 05:25:00,64.6,64.6,29.96,WSW,245,0.0,1.0,100,0.00,,---,0.00,VWS V14.01,2013-07-20 09:25:00,
2013-07-20 05:30:00,64.5,64.5,29.96,WSW,245,0.0,0.0,100,0.00,,---,0.00,VWS V14.01,2013-07-20 09:30:00,
2013-07-20 05:35:00,64.5,64.5,29.96,WSW,245,0.0,0.0,100,0.00,,---,0.00,VWS V14.01,2013-07-20 09:35:00,
2013-07-20 05:40:00,64.3,64.3,29.96,WSW,245,0.0,0.0,100,0.00,,---,0.00,VWS V14.01,2013-07-20 09:40:00,
2013-07-20 05:45:00,64.1,64.1,29.97,WSW,245,0.0,0.0,100,0.00,,---,0.00,VWS V14.01,2013-07-20 09:45:00,
2013-07-20 05:50:00,64.0,64.0,29.97,WSW,245,0.0,0.0,100,0.00,,---,0.00,VWS V14.01,2013-07-20 09:50:00,
2013-07-20 05:55:00,64.0,64.0,29.97,WSW,245,0.0,0.0,100,0.00,,---,0.00,VWS V14.01,2013-07-20 09:55:00,
2013-07-20 06:00:00,64.1,64.1,29.97,WSW,245,0.0,0.0,100,0.00,,---,0.00,VWS V14.01,2013-07-20 10:00:00,
2013-07-20 06:05:00,64.3,64.3,29.97,WSW,245,1.0,1.0,100,0.00,,---,0.00,VWS V14.01,2013-07-20 10:05:00,
2013-07-20 06:10:00,64.0,64.0,29.97,WSW,245,1.0,2.0,100,0.00,,---,0.00,VWS V14.01,2013-07-20 10:10:00,
2013-07-20 06:15:00,64.0,64.0,29.97,WSW,245,1.0,2.0,100,0.00,,---,0.00,VWS V14.01,2013-07-20 10:15:00,
2013-07-20 06:20:00,64.0,64.0,29.97,WSW,245,1.0,1.0,100,0.00,,---,0.00,VWS V14.01,2013-07-20 10:20:00,
2013-07-20 06:25:00,64.0,64.0,29.97,WSW,245,1.0,2.0,100,0.00,,---,0.00,VWS V14.01,2013-07-20 10:25:00,
2013-07-20 06:30:00,64.0,64.0,29.97,WSW,245,1.0,2.0,100,0.00,,---,0.00,VWS V14.01,2013-07-20 10:30:00,
2013-07-20 06:35:00,64.0,64.0,29.97,WSW,245,0.0,1.0,100,0.00,,---,0.00,VWS V14.01,2013-07-20 10:35:00,
2013-07-20 06:40:00,64.0,64.0,29.98,WSW,245,1.0,2.0,100,0.00,,---,0.00,VWS V14.01,2013-07-20 10:40:00,
2013-07-20 06:45:00,63.9,63.9,29.98,WSW,249,1.0,2.0,100,0.00,,---,0.00,VWS V14.01,2013-07-20 10:45:00,
2013-07-20 06:50:00,64.1,64.1,29.98,WSW,253,1.0,2.0,100,0.00,,---,0.00,VWS V14.01,2013-07-20 10:50:00,
2013-07-20 06:55:00,64.3,64.3,29.98,WSW,255,1.0,1.0,100,0.00,,---,0.00,VWS V14.01,2013-07-20 10:55:00,
2013-07-20 07:00:00,64.4,64.4,29.98,WSW,255,0.0,0.0,100,0.00,,---,0.00,VWS V14.01,2013-07-20 11:00:00,
2013-07-20 07:05:00,64.6,64.6,29.98,WSW,255,2.0,2.0,100,0.00,,---,0.00,VWS V14.01,2013-07-20 11:05:00,
2013-07-20 07:10:00,64.7,64.7,29.98,WSW,255,1.0,2.0,100,0.00,,---,0.00,VWS V14.01,2013-07-20 11:10:00,
2013-07-20 07:15:00,64.8,64.8,29.98,WSW,255,1.0,1.0,100,0.00,,---,0.00,VWS V14.01,2013-07-20 11:15:00,
2013-07-20 07:20:00,64.9,64.9,29.98,WSW,255,1.0,1.0,100,0.00,,---,0.00,VWS V14.01,2013-07-20 11:20:00,
2013-07-20 07:25:00,64.9,64.9,29.98,WSW,255,1.0,1.0,100,0.00,,---,0.00,VWS V14.01,2013-07-20 11:25:00,
2013-07-20 07:30:00,65.0,65.0,29.98,WSW,255,1.0,1.0,100,0.00,,---,0.00,VWS V14.01,2013-07-20 11:30:00,
2013-07-20 07:35:00,65.3,65.3,29.98,WSW,255,0.0,0.0,100,0.00,,---,0.00,VWS V14.01,2013-07-20 11:35:00,
2013-07-20 07:40:00,65.3,65.3,29.98,WSW,255,2.0,2.0,100,0.00,,---,0.00,VWS V14.01,2013-07-20 11:40:00,
2013-07-20 07:45:00,65.6,65.6,29.98,WSW,255,0.0,1.0,100,0.00,,---,0.00,VWS V14.01,2013-07-20 11:45:00,
2013-07-20 07:50:00,65.7,65.7,29.98,WSW,255,0.0,0.0,100,0.00,,---,0.00,VWS V14.01,2013-07-20 11:50:00,
2013-07-20 07:55:00,66.1,66.1,29.98,WSW,255,0.0,1.0,100,0.00,,---,0.00,VWS V14.01,2013-07-20 11:55:00,
2013-07-20 08:00:00,66.4,66.4,29.98,WSW,255,1.0,2.0,100,0.00,,---,0.00,VWS V14.01,2013-07-20 12:00:00,
2013-07-20 08:05:00,66.7,66.7,29.98,WSW,255,2.0,2.0,100,0.00,,---,0.00,VWS V14.01,2013-07-20 12:05:00,
2013-07-20 08:10:00,67.0,67.0,29.98,WSW,258,0.0,0.0,100,0.00,,---,0.00,VWS V14.01,2013-07-20 12:10:00,
2013-07-20 08:15:00,67.0,66.7,29.98,WSW,258,1.0,1.0,99,0.00,,---,0.00,VWS V14.01,2013-07-20 12:15:00,
2013-07-20 08:20:00,67.6,67.3,29.98,WSW,258,1.0,2.0,99,0.00,,---,0.00,VWS V14.01,2013-07-20 12:20:00,
2013-07-20 08:25:00,67.9,67.3,29.99,WSW,258,1.0,1.0,98,0.00,,---,0.00,VWS V14.01,2013-07-20 12:25:00,
2013-07-20 08:30:00,67.9,67.0,29.99,WSW,258,0.0,1.0,97,0.00,,---,0.00,VWS V14.01,2013-07-20 12:30:00,
2013-07-20 08:35:00,68.5,67.6,29.99,WSW,258,0.0,0.0,97,0.00,,---,0.00,VWS V14.01,2013-07-20 12:35:00,
2013-07-20 08:40:00,68.6,67.4,29.98,West,261,1.0,1.0,96,0.00,,---,0.00,VWS V14.01,2013-07-20 12:40:00,
2013-07-20 08:45:00,68.7,67.5,29.99,WNW,289,1.0,1.0,96,0.00,,---,0.00,VWS V14.01,2013-07-20 12:45:00,
2013-07-20 08:50:00,68.7,67.2,29.99,WNW,289,1.0,1.0,95,0.00,,---,0.00,VWS V14.01,2013-07-20 12:50:00,
2013-07-20 08:55:00,68.7,67.5,29.99,WNW,289,1.0,1.0,96,0.00,,---,0.00,VWS V14.01,2013-07-20 12:55:00,
2013-07-20 09:00:00,69.2,68.0,29.99,WNW,289,2.0,2.0,96,0.00,,---,0.00,VWS V14.01,2013-07-20 13:00:00,
2013-07-20 09:05:00,69.2,67.7,29.99,WNW,289,1.0,2.0,95,0.00,,---,0.00,VWS V14.01,2013-07-20 13:05:00,
2013-07-20 09:10:00,69.4,68.5,29.99,WNW,289,1.0,1.0,97,0.00,,---,0.00,VWS V14.01,2013-07-20 13:10:00,
2013-07-20 09:15:00,70.1,68.6,29.99,WNW,287,1.0,2.0,95,0.00,,---,0.00,VWS V14.01,2013-07-20 13:15:00,
2013-07-20 09:20:00,69.8,67.7,29.99,WNW,287,1.0,1.0,93,0.00,,---,0.00,VWS V14.01,2013-07-20 13:20:00,
2013-07-20 09:25:00,69.7,67.6,29.99,WNW,287,0.0,0.0,93,0.00,,---,0.00,VWS V14.01,2013-07-20 13:25:00,
2013-07-20 09:30:00,70.8,69.0,29.99,WNW,287,2.0,2.0,94,0.00,,---,0.00,VWS V14.01,2013-07-20 13:30:00,
2013-07-20 09:35:00,71.1,68.3,29.99,WNW,287,0.0,0.0,91,0.00,,---,0.00,VWS V14.01,2013-07-20 13:35:00,
2013-07-20 09:40:00,71.6,68.5,29.99,WNW,287,0.0,1.0,90,0.00,,---,0.00,VWS V14.01,2013-07-20 13:40:00,
2013-07-20 09:45:00,72.2,68.8,29.99,West,263,1.0,2.0,89,0.00,,---,0.00,VWS V14.01,2013-07-20 13:45:00,
2013-07-20 09:50:00,72.1,68.0,29.99,WNW,293,0.0,1.0,87,0.00,,---,0.00,VWS V14.01,2013-07-20 13:50:00,
2013-07-20 09:55:00,72.2,68.1,29.99,WNW,291,0.0,2.0,87,0.00,,---,0.00,VWS V14.01,2013-07-20 13:55:00,
2013-07-20 10:00:00,72.7,68.3,29.99,WNW,284,0.0,3.0,86,0.00,,---,0.00,VWS V14.01,2013-07-20 14:00:00,
2013-07-20 10:05:00,72.6,70.2,29.99,WNW,282,0.0,1.0,92,0.00,,---,0.00,VWS V14.01,2013-07-20 14:05:00,
2013-07-20 10:10:00,73.1,68.3,29.99,WNW,282,0.0,1.0,85,0.00,,---,0.00,VWS V14.01,2013-07-20 14:10:00,
2013-07-20 10:15:00,73.2,68.4,29.99,WNW,303,0.0,2.0,85,0.00,,---,0.00,VWS V14.01,2013-07-20 14:15:00,
2013-07-20 10:20:00,73.8,69.3,29.99,WNW,301,0.0,1.0,86,0.00,,---,0.00,VWS V14.01,2013-07-20 14:20:00,
2013-07-20 10:25:00,73.4,68.6,29.99,NNW,334,1.0,1.0,85,0.00,,---,0.00,VWS V14.01,2013-07-20 14:25:00,
2013-07-20 10:30:00,73.8,68.7,29.99,NW,314,0.0,2.0,84,0.00,,---,0.00,VWS V14.01,2013-07-20 14:30:00,
2013-07-20 10:35:00,73.9,68.8,29.99,WNW,299,1.0,1.0,84,0.00,,---,0.00,VWS V14.01,2013-07-20 14:35:00,
2013-07-20 10:40:00,74.3,69.2,29.99,WNW,299,1.0,1.0,84,0.00,,---,0.00,VWS V14.01,2013-07-20 14:40:00,
2013-07-20 10:45:00,74.0,69.6,29.99,West,274,0.0,1.0,86,0.00,,---,0.00,VWS V14.01,2013-07-20 14:45:00,
2013-07-20 10:50:00,73.9,68.8,29.99,WNW,295,1.0,1.0,84,0.00,,---,0.00,VWS V14.01,2013-07-20 14:50:00,
2013-07-20 10:55:00,74.0,69.6,29.99,NW,307,0.0,4.0,86,0.00,,---,0.00,VWS V14.01,2013-07-20 14:55:00,
2013-07-20 11:00:00,74.2,68.4,29.99,NNE,25,0.0,1.0,82,0.00,,---,0.00,VWS V14.01,2013-07-20 15:00:00,
2013-07-20 11:05:00,73.9,68.1,29.99,NNE,25,0.0,1.0,82,0.00,,---,0.00,VWS V14.01,2013-07-20 15:05:00,
2013-07-20 11:10:00,74.1,66.8,29.99,West,268,1.0,3.0,78,0.00,,---,0.00,VWS V14.01,2013-07-20 15:10:00,
2013-07-20 11:15:00,74.6,68.4,29.99,West,268,0.0,0.0,81,0.00,,---,0.00,VWS V14.01,2013-07-20 15:15:00,
2013-07-20 11:20:00,75.3,69.4,29.99,West,268,0.0,1.0,82,0.00,,---,0.00,VWS V14.01,2013-07-20 15:20:00,
2013-07-20 11:25:00,76.1,70.2,29.99,West,268,1.0,1.0,82,0.00,,---,0.00,VWS V14.01,2013-07-20 15:25:00,
2013-07-20 11:30:00,75.0,68.4,29.98,West,268,0.0,1.0,80,0.00,,---,0.00,VWS V14.01,2013-07-20 15:30:00,
2013-07-20 11:35:00,75.2,68.2,29.98,West,260,0.0,1.0,79,0.00,,---,0.00,VWS V14.01,2013-07-20 15:35:00,
2013-07-20 11:40:00,75.4,69.2,29.98,SSW,210,0.0,0.0,81,0.00,,---,0.00,VWS V14.01,2013-07-20 15:40:00,
2013-07-20 11:45:00,73.7,68.2,29.98,SW,231,0.0,0.0,83,0.00,,---,0.00,VWS V14.01,2013-07-20 15:45:00,
2013-07-20 11:50:00,72.3,67.9,29.98,SW,232,2.0,2.0,86,0.01,,---,0.01,VWS V14.01,2013-07-20 15:50:00,
2013-07-20 11:55:00,71.5,69.7,29.98,SW,232,1.0,1.0,94,0.04,,---,0.04,VWS V14.01,2013-07-20 15:55:00,
2013-07-20 12:00:00,72.3,70.5,29.98,SW,232,0.0,1.0,94,0.04,,---,0.04,VWS V14.01,2013-07-20 16:00:00,
2013-07-20 12:05:00,73.3,70.8,29.97,SW,232,0.0,1.0,92,0.04,,---,0.04,VWS V14.01,2013-07-20 16:05:00,
2013-07-20 12:10:00,74.1,71.3,29.97,WSW,240,1.0,1.0,91,0.04,,---,0.04,VWS V14.01,2013-07-20 16:10:00,
2013-07-20 12:15:00,74.3,70.8,29.97,WSW,240,0.0,1.0,89,0.04,,---,0.04,VWS V14.01,2013-07-20 16:15:00,
2013-07-20 12:20:00,74.9,71.1,29.97,WSW,242,1.0,2.0,88,0.04,,---,0.04,VWS V14.01,2013-07-20 16:20:00,
2013-07-20 12:25:00,73.7,69.3,29.97,WSW,249,5.0,5.0,86,0.04,,---,0.04,VWS V14.01,2013-07-20 16:25:00,
2013-07-20 12:30:00,71.9,67.8,29.97,West,276,0.0,1.0,87,0.04,,---,0.04,VWS V14.01,2013-07-20 16:30:00,
2013-07-20 12:35:00,70.8,67.4,29.97,West,276,0.0,1.0,89,0.04,,---,0.04,VWS V14.01,2013-07-20 16:35:00,
2013-07-20 12:40:00,69.9,67.5,29.97,West,276,0.0,0.0,92,0.04,,---,0.04,VWS V14.01,2013-07-20 16:40:00,
2013-07-20 12:45:00,69.7,66.6,29.97,West,276,1.0,1.0,90,0.04,,---,0.04,VWS V14.01,2013-07-20 16:45:00,
2013-07-20 12:50:00,69.7,67.3,29.97,WNW,300,0.0,2.0,92,0.03,,---,0.04,VWS V14.01,2013-07-20 16:50:00,
2013-07-20 12:55:00,69.1,67.6,29.96,East,91,0.0,1.0,95,0.00,,---,0.04,VWS V14.01,2013-07-20 16:55:00,
2013-07-20 13:00:00,68.9,67.7,29.96,SE,143,0.0,1.0,96,0.00,,---,0.04,VWS V14.01,2013-07-20 17:00:00,
2013-07-20 13:05:00,68.7,68.1,29.97,ESE,116,5.0,5.0,98,0.00,,---,0.04,VWS V14.01,2013-07-20 17:05:00,
2013-07-20 13:10:00,68.5,67.9,29.97,East,95,5.0,6.0,98,0.00,,---,0.04,VWS V14.01,2013-07-20 17:10:00,
2013-07-20 13:15:00,68.3,67.7,29.96,ESE,122,3.0,4.0,98,0.00,,---,0.04,VWS V14.01,2013-07-20 17:15:00,
2013-07-20 13:20:00,68.3,67.7,29.96,ESE,123,2.0,3.0,98,0.00,,---,0.04,VWS V14.01,2013-07-20 17:20:00,
2013-07-20 13:25:00,68.4,67.8,29.95,ESE,112,5.0,6.0,98,0.00,,---,0.04,VWS V14.01,2013-07-20 17:25:00,
2013-07-20 13:30:00,68.4,67.8,29.95,ESE,121,5.0,7.0,98,0.00,,---,0.04,VWS V14.01,2013-07-20 17:30:00,
2013-07-20 13:35:00,68.3,67.7,29.95,ESE,116,3.0,5.0,98,0.00,,---,0.04,VWS V14.01,2013-07-20 17:35:00,
2013-07-20 13:40:00,68.2,67.6,29.95,ESE,104,2.0,5.0,98,0.00,,---,0.04,VWS V14.01,2013-07-20 17:40:00,
2013-07-20 13:45:00,67.9,67.3,29.96,ESE,110,2.0,6.0,98,0.00,,---,0.04,VWS V14.01,2013-07-20 17:45:00,
2013-07-20 13:50:00,68.0,67.4,29.96,ESE,117,2.0,2.0,98,0.00,,---,0.04,VWS V14.01,2013-07-20 17:50:00,
2013-07-20 13:55:00,68.0,66.8,29.95,ESE,117,0.0,1.0,96,0.00,,---,0.04,VWS V14.01,2013-07-20 17:55:00,
2013-07-20 14:00:00,68.2,67.0,29.95,ESE,116,0.0,1.0,96,0.00,,---,0.04,VWS V14.01,2013-07-20 18:00:00,
2013-07-20 14:05:00,68.1,66.9,29.95,ESE,118,2.0,3.0,96,0.00,,---,0.04,VWS V14.01,2013-07-20 18:05:00,
2013-07-20 14:10:00,67.7,66.8,29.95,SE,133,2.0,3.0,97,0.00,,---,0.04,VWS V14.01,2013-07-20 18:10:00,
2013-07-20 14:15:00,67.8,67.2,29.94,SE,135,2.0,4.0,98,0.00,,---,0.04,VWS V14.01,2013-07-20 18:15:00,
2013-07-20 14:20:00,67.6,67.0,29.96,ESE,117,1.0,1.0,98,0.00,,---,0.04,VWS V14.01,2013-07-20 18:20:00,
2013-07-20 14:25:00,67.4,66.8,29.96,ESE,120,2.0,3.0,98,0.00,,---,0.04,VWS V14.01,2013-07-20 18:25:00,
2013-07-20 14:31:00,67.1,66.5,29.95,ESE,114,5.0,5.0,98,0.00,,---,0.04,VWS V14.01,2013-07-20 18:31:00,
2013-07-20 14:36:00,66.8,66.5,29.95,ESE,116,3.0,5.0,99,0.00,,---,0.04,VWS V14.01,2013-07-20 18:36:00,
2013-07-20 14:41:00,66.6,66.3,29.96,SE,126,3.0,3.0,99,0.00,,---,0.04,VWS V14.01,2013-07-20 18:41:00,
2013-07-20 14:46:00,66.5,66.2,29.96,SSE,148,3.0,3.0,99,0.00,,---,0.04,VWS V14.01,2013-07-20 18:46:00,
2013-07-20 14:51:00,66.0,65.4,29.96,South,177,2.0,4.0,98,0.00,,---,0.04,VWS V14.01,2013-07-20 18:51:00,
2013-07-20 14:56:00,65.5,65.2,29.96,South,182,2.0,3.0,99,0.00,,---,0.04,VWS V14.01,2013-07-20 18:56:00,
2013-07-20 15:01:00,65.2,64.9,29.95,SE,142,0.0,2.0,99,0.00,,---,0.04,VWS V14.01,2013-07-20 19:01:00,
2013-07-20 15:06:00,65.1,64.8,29.94,South,179,2.0,2.0,99,0.00,,---,0.04,VWS V14.01,2013-07-20 19:06:00,
2013-07-20 15:11:00,65.0,65.0,29.94,East,97,2.0,3.0,100,0.00,,---,0.04,VWS V14.01,2013-07-20 19:11:00,
2013-07-20 15:16:00,64.9,64.6,29.94,SE,131,1.0,2.0,99,0.00,,---,0.04,VWS V14.01,2013-07-20 19:16:00,
2013-07-20 15:21:00,64.9,64.9,29.95,South,176,1.0,3.0,100,0.00,,---,0.04,VWS V14.01,2013-07-20 19:21:00,
2013-07-20 15:26:00,64.9,64.9,29.95,SSE,164,0.0,0.0,100,0.00,,---,0.04,VWS V14.01,2013-07-20 19:26:00,
2013-07-20 15:31:00,65.0,64.7,29.94,SSE,166,0.0,0.0,99,0.00,,---,0.04,VWS V14.01,2013-07-20 19:31:00,
2013-07-20 15:37:00,65.5,65.2,29.94,SSE,166,0.0,0.0,99,0.00,,---,0.04,VWS V14.01,2013-07-20 19:37:00,
2013-07-20 15:42:00,65.8,65.2,29.94,South,170,0.0,0.0,98,0.00,,---,0.04,VWS V14.01,2013-07-20 19:42:00,
2013-07-20 15:47:00,65.9,65.3,29.94,South,170,0.0,0.0,98,0.00,,---,0.04,VWS V14.01,2013-07-20 19:47:00,
2013-07-20 15:52:00,66.1,65.8,29.93,South,170,0.0,0.0,99,0.00,,---,0.04,VWS V14.01,2013-07-20 19:52:00,
2013-07-20 15:57:00,66.2,66.2,29.94,South,170,0.0,0.0,100,0.00,,---,0.04,VWS V14.01,2013-07-20 19:57:00,
2013-07-20 16:02:00,66.2,65.6,29.94,South,170,0.0,0.0,98,0.00,,---,0.04,VWS V14.01,2013-07-20 20:02:00,
2013-07-20 16:07:00,66.5,66.2,29.94,South,170,1.0,1.0,99,0.00,,---,0.04,VWS V14.01,2013-07-20 20:07:00,
2013-07-20 16:12:00,66.5,66.2,29.95,South,170,0.0,0.0,99,0.00,,---,0.04,VWS V14.01,2013-07-20 20:12:00,
2013-07-20 16:17:00,67.0,66.4,29.94,South,170,0.0,0.0,98,0.00,,---,0.04,VWS V14.01,2013-07-20 20:17:00,
2013-07-20 16:22:00,67.8,67.2,29.94,WNW,293,0.0,3.0,98,0.00,,---,0.04,VWS V14.01,2013-07-20 20:22:00,
2013-07-20 16:27:00,68.1,66.9,29.94,WNW,293,0.0,0.0,96,0.00,,---,0.04,VWS V14.01,2013-07-20 20:27:00,
2013-07-20 16:32:00,68.1,66.6,29.94,North,2,2.0,2.0,95,0.00,,---,0.04,VWS V14.01,2013-07-20 20:32:00,
2013-07-20 16:37:00,68.1,67.2,29.94,North,2,1.0,2.0,97,0.00,,---,0.04,VWS V14.01,2013-07-20 20:37:00,
2013-07-20 16:42:00,67.6,66.4,29.94,ENE,77,2.0,2.0,96,0.00,,---,0.04,VWS V14.01,2013-07-20 20:42:00,
2013-07-20 16:47:00,67.5,67.2,29.94,East,87,2.0,2.0,99,0.00,,---,0.04,VWS V14.01,2013-07-20 20:47:00,
2013-07-20 16:52:00,67.4,66.8,29.94,ESE,104,0.0,3.0,98,0.00,,---,0.04,VWS V14.01,2013-07-20 20:52:00,
2013-07-20 16:57:00,67.9,67.3,29.95,ESE,104,0.0,0.0,98,0.00,,---,0.04,VWS V14.01,2013-07-20 20:57:00,
2013-07-20 17:02:00,68.2,67.3,29.94,ESE,105,0.0,0.0,97,0.00,,---,0.04,VWS V14.01,2013-07-20 21:02:00,
2013-07-20 17:07:00,68.1,67.2,29.95,ESE,108,2.0,2.0,97,0.00,,---,0.04,VWS V14.01,2013-07-20 21:07:00,
2013-07-20 17:12:00,67.9,67.3,29.95,ESE,108,1.0,2.0,98,0.00,,---,0.04,VWS V14.01,2013-07-20 21:12:00,
2013-07-20 17:17:00,68.1,67.2,29.95,ESE,109,0.0,2.0,97,0.00,,---,0.04,VWS V14.01,2013-07-20 21:17:00,
2013-07-20 17:23:00,67.9,66.4,29.95,ESE,109,0.0,1.0,95,0.00,,---,0.04,VWS V14.01,2013-07-20 21:23:00,
2013-07-20 17:28:00,68.2,67.0,29.95,ESE,109,1.0,2.0,96,0.00,,---,0.04,VWS V14.01,2013-07-20 21:28:00,
2013-07-20 17:33:00,67.9,66.1,29.95,SE,126,1.0,3.0,94,0.00,,---,0.04,VWS V14.01,2013-07-20 21:33:00,
2013-07-20 17:38:00,67.9,67.0,29.95,ESE,121,3.0,5.0,97,0.00,,---,0.04,VWS V14.01,2013-07-20 21:38:00,
2013-07-20 17:43:00,68.2,67.3,29.95,ESE,119,1.0,3.0,97,0.00,,---,0.04,VWS V14.01,2013-07-20 21:43:00,
2013-07-20 17:48:00,68.3,67.1,29.95,ESE,119,2.0,5.0,96,0.00,,---,0.04,VWS V14.01,2013-07-20 21:48:00,
2013-07-20 17:53:00,68.1,67.2,29.94,ESE,110,1.0,2.0,97,0.00,,---,0.04,VWS V14.01,2013-07-20 21:53:00,
2013-07-20 17:58:00,68.2,67.3,29.95,ESE,103,0.0,1.0,97,0.00,,---,0.04,VWS V14.01,2013-07-20 21:58:00,
2013-07-20 18:03:00,68.4,67.5,29.94,ESE,122,1.0,1.0,97,0.00,,---,0.04,VWS V14.01,2013-07-20 22:03:00,
2013-07-20 18:08:00,68.3,67.4,29.94,SSE,157,1.0,2.0,97,0.00,,---,0.04,VWS V14.01,2013-07-20 22:08:00,
2013-07-20 18:13:00,68.4,67.2,29.94,East,101,0.0,1.0,96,0.00,,---,0.04,VWS V14.01,2013-07-20 22:13:00,
2013-07-20 18:18:00,68.4,67.2,29.94,ESE,114,0.0,1.0,96,0.00,,---,0.04,VWS V14.01,2013-07-20 22:18:00,
2013-07-20 18:24:00,68.3,66.5,29.93,ESE,114,1.0,1.0,94,0.00,,---,0.04,VWS V14.01,2013-07-20 22:24:00,
2013-07-20 18:29:00,68.3,66.8,29.93,ESE,119,1.0,1.0,95,0.00,,---,0.04,VWS V14.01,2013-07-20 22:29:00,
2013-07-20 18:34:00,68.1,65.4,29.93,ESE,119,0.0,1.0,91,0.00,,---,0.04,VWS V14.01,2013-07-20 22:34:00,
2013-07-20 18:39:00,68.3,65.6,29.92,ESE,119,0.0,0.0,91,0.00,,---,0.04,VWS V14.01,2013-07-20 22:39:00,
2013-07-20 18:45:00,68.2,66.4,29.92,ESE,119,0.0,1.0,94,0.00,,---,0.04,VWS V14.01,2013-07-20 22:45:00,
2013-07-20 18:50:00,68.0,65.9,29.92,ESE,119,0.0,0.0,93,0.00,,---,0.04,VWS V14.01,2013-07-20 22:50:00,
2013-07-20 18:55:00,68.1,65.7,29.92,ESE,119,0.0,0.0,92,0.00,,---,0.04,VWS V14.01,2013-07-20 22:55:00,
2013-07-20 19:00:00,68.1,65.7,29.92,ESE,119,0.0,0.0,92,0.00,,---,0.04,VWS V14.01,2013-07-20 23:00:00,
2013-07-20 19:05:00,68.1,66.0,29.92,ESE,119,0.0,0.0,93,0.00,,---,0.04,VWS V14.01,2013-07-20 23:05:00,
2013-07-20 19:10:00,67.6,66.1,29.92,ESE,119,2.0,2.0,95,0.00,,---,0.04,VWS V14.01,2013-07-20 23:10:00,
2013-07-20 19:15:00,67.0,65.5,29.93,ESE,119,2.0,3.0,95,0.00,,---,0.04,VWS V14.01,2013-07-20 23:15:00,
2013-07-20 19:20:00,66.8,65.6,29.93,ESE,119,1.0,2.0,96,0.00,,---,0.04,VWS V14.01,2013-07-20 23:20:00,
2013-07-20 19:25:00,66.8,65.9,29.93,ESE,119,1.0,1.0,97,0.00,,---,0.04,VWS V14.01,2013-07-20 23:25:00,
2013-07-20 19:30:00,66.7,65.5,29.92,ESE,119,0.0,0.0,96,0.00,,---,0.04,VWS V14.01,2013-07-20 23:30:00,
2013-07-20 19:35:00,66.8,65.6,29.93,ESE,120,1.0,1.0,96,0.00,,---,0.04,VWS V14.01,2013-07-20 23:35:00,
2013-07-20 19:41:00,66.6,65.4,29.93,SE,125,1.0,1.0,96,0.00,,---,0.04,VWS V14.01,2013-07-20 23:41:00,
2013-07-20 19:46:00,66.4,65.5,29.93,SE,125,1.0,2.0,97,0.00,,---,0.04,VWS V14.01,2013-07-20 23:46:00,
2013-07-20 19:51:00,66.2,65.6,29.93,SE,126,0.0,1.0,98,0.00,,---,0.04,VWS V14.01,2013-07-20 23:51:00,
2013-07-20 19:56:00,65.9,65.3,29.93,SE,126,0.0,1.0,98,0.00,,---,0.04,VWS V14.01,2013-07-20 23:56:00,
2013-07-20 20:01:00,65.8,65.2,29.93,SE,126,0.0,0.0,98,0.00,,---,0.04,VWS V14.01,2013-07-21 00:01:00,
2013-07-20 20:06:00,65.6,64.7,29.93,SE,126,0.0,0.0,97,0.00,,---,0.04,VWS V14.01,2013-07-21 00:06:00,
2013-07-20 20:11:00,65.7,64.2,29.94,SE,126,0.0,0.0,95,0.00,,---,0.04,VWS V14.01,2013-07-21 00:11:00,
2013-07-20 20:16:00,66.0,64.2,29.93,SE,126,0.0,0.0,94,0.00,,---,0.04,VWS V14.01,2013-07-21 00:16:00,
2013-07-20 20:21:00,66.0,64.5,29.93,SE,126,1.0,1.0,95,0.00,,---,0.04,VWS V14.01,2013-07-21 00:21:00,
2013-07-20 20:26:00,66.0,64.5,29.93,SE,126,0.0,0.0,95,0.00,,---,0.04,VWS V14.01,2013-07-21 00:26:00,
2013-07-20 20:31:00,66.1,64.6,29.93,SE,126,2.0,2.0,95,0.00,,---,0.04,VWS V14.01,2013-07-21 00:31:00,
2013-07-20 20:37:00,65.7,64.5,29.93,SE,126,1.0,2.0,96,0.00,,---,0.04,VWS V14.01,2013-07-21 00:37:00,
2013-07-20 20:42:00,65.4,64.2,29.94,SE,126,0.0,0.0,96,0.00,,---,0.04,VWS V14.01,2013-07-21 00:42:00,
2013-07-20 20:47:00,65.4,64.2,29.94,SE,126,0.0,0.0,96,0.00,,---,0.04,VWS V14.01,2013-07-21 00:47:00,
2013-07-20 20:52:00,65.8,64.0,29.94,SE,126,0.0,0.0,94,0.00,,---,0.04,VWS V14.01,2013-07-21 00:52:00,
2013-07-20 20:57:00,66.1,64.3,29.95,SE,126,0.0,0.0,94,0.00,,---,0.04,VWS V14.01,2013-07-21 00:57:00,
2013-07-20 21:02:00,66.2,64.1,29.95,SE,126,0.0,0.0,93,0.00,,---,0.04,VWS V14.01,2013-07-21 01:02:00,
2013-07-20 21:07:00,66.2,63.5,29.95,SE,126,0.0,0.0,91,0.00,,---,0.04,VWS V14.01,2013-07-21 01:07:00,
2013-07-20 21:12:00,66.2,63.5,29.95,SE,126,0.0,0.0,91,0.00,,---,0.04,VWS V14.01,2013-07-21 01:12:00,
2013-07-20 21:17:00,66.3,63.6,29.95,SE,126,0.0,0.0,91,0.00,,---,0.04,VWS V14.01,2013-07-21 01:17:00,
2013-07-20 21:22:00,66.4,64.0,29.95,SE,126,0.0,0.0,92,0.00,,---,0.04,VWS V14.01,2013-07-21 01:22:00,
2013-07-20 21:27:00,66.7,64.0,29.96,SE,126,0.0,0.0,91,0.00,,---,0.04,VWS V14.01,2013-07-21 01:27:00,
2013-07-20 21:32:00,66.3,63.9,29.96,SE,126,0.0,0.0,92,0.00,,---,0.04,VWS V14.01,2013-07-21 01:32:00,
2013-07-20 21:37:00,66.0,63.9,29.97,SE,126,0.0,0.0,93,0.00,,---,0.04,VWS V14.01,2013-07-21 01:37:00,
2013-07-20 21:42:00,66.1,64.3,29.97,SE,126,0.0,0.0,94,0.00,,---,0.04,VWS V14.01,2013-07-21 01:42:00,
2013-07-20 21:47:00,66.3,64.2,29.97,SE,126,0.0,0.0,93,0.00,,---,0.04,VWS V14.01,2013-07-21 01:47:00,
2013-07-20 21:53:00,66.2,64.1,29.97,SE,126,0.0,0.0,93,0.00,,---,0.04,VWS V14.01,2013-07-21 01:53:00,
2013-07-20 21:58:00,65.7,63.9,29.98,SE,126,0.0,0.0,94,0.00,,---,0.04,VWS V14.01,2013-07-21 01:58:00,
2013-07-20 22:03:00,65.4,63.9,29.98,SE,126,0.0,2.0,95,0.00,,---,0.04,VWS V14.01,2013-07-21 02:03:00,
2013-07-20 22:09:00,65.1,63.9,29.98,ESE,119,1.0,2.0,96,0.00,,---,0.04,VWS V14.01,2013-07-21 02:09:00,
2013-07-20 22:14:00,64.9,64.0,29.98,SE,132,1.0,1.0,97,0.00,,---,0.04,VWS V14.01,2013-07-21 02:14:00,
2013-07-20 22:19:00,64.9,64.3,29.99,SE,135,2.0,2.0,98,0.00,,---,0.04,VWS V14.01,2013-07-21 02:19:00,
2013-07-20 22:24:00,65.0,64.1,29.99,SE,137,0.0,1.0,97,0.00,,---,0.04,VWS V14.01,2013-07-21 02:24:00,
2013-07-20 22:29:00,65.1,64.2,29.99,SE,137,1.0,1.0,97,0.00,,---,0.04,VWS V14.01,2013-07-21 02:29:00,
2013-07-20 22:34:00,64.8,64.2,29.99,SE,127,3.0,3.0,98,0.00,,---,0.04,VWS V14.01,2013-07-21 02:34:00,
2013-07-20 22:39:00,64.5,63.9,29.99,SE,127,1.0,2.0,98,0.00,,---,0.04,VWS V14.01,2013-07-21 02:39:00,
2013-07-20 22:44:00,64.3,64.0,29.99,SE,127,1.0,2.0,99,0.00,,---,0.04,VWS V14.01,2013-07-21 02:44:00,
2013-07-20 22:49:00,64.2,64.2,29.99,SE,127,0.0,0.0,100,0.00,,---,0.04,VWS V14.01,2013-07-21 02:49:00,
2013-07-20 22:54:00,64.1,64.1,29.99,SE,127,1.0,1.0,100,0.00,,---,0.04,VWS V14.01,2013-07-21 02:54:00,
2013-07-20 22:59:00,64.2,64.2,29.99,SE,127,0.0,0.0,100,0.00,,---,0.04,VWS V14.01,2013-07-21 02:59:00,
2013-07-20 23:04:00,64.2,64.2,29.99,SW,235,0.0,3.0,100,0.00,,---,0.04,VWS V14.01,2013-07-21 03:04:00,
2013-07-20 23:09:00,64.1,64.1,29.99,SW,235,0.0,0.0,100,0.00,,---,0.04,VWS V14.01,2013-07-21 03:09:00,
2013-07-20 23:14:00,64.1,64.1,29.99,SW,235,0.0,1.0,100,0.00,,---,0.04,VWS V14.01,2013-07-21 03:14:00,
2013-07-20 23:19:00,64.2,64.2,29.99,SW,235,2.0,2.0,100,0.00,,---,0.04,VWS V14.01,2013-07-21 03:19:00,
2013-07-20 23:24:00,64.2,64.2,29.99,West,259,2.0,2.0,100,0.00,,---,0.04,VWS V14.01,2013-07-21 03:24:00,
2013-07-20 23:29:00,64.1,64.1,29.99,West,276,1.0,2.0,100,0.00,,---,0.04,VWS V14.01,2013-07-21 03:29:00,
2013-07-20 23:34:00,64.1,64.1,29.99,West,276,1.0,2.0,100,0.00,,---,0.04,VWS V14.01,2013-07-21 03:34:00,
2013-07-20 23:39:00,64.1,64.1,29.99,West,276,2.0,2.0,100,0.00,,---,0.04,VWS V14.01,2013-07-21 03:39:00,
2013-07-20 23:45:00,64.1,64.1,29.99,West,276,1.0,2.0,100,0.00,,---,0.04,VWS V14.01,2013-07-21 03:45:00,
2013-07-20 23:50:00,64.1,64.1,29.98,West,276,2.0,2.0,100,0.00,,---,0.04,VWS V14.01,2013-07-21 03:50:00,
2013-07-20 23:55:00,64.1,64.1,29.99,West,276,2.0,2.0,100,0.00,,---,0.04,VWS V14.01,2013-07-21 03:55:00,